Location: Andrea Ville Subdivision
(14.3485°N, 120.9580°E)
Time: 01:45:30
(UTC+00:00)

SAR-Lupe-4 - Pass Details

Date: 13 January 2026
Orbit: 480 x 483 km, 98.1° (Epoch: 10 January)

Event Time Altitude Azimuth Distance (km) Brightness Sun altitude
Rises 10:05:28 0° 161° (SSE) 2,528 7.2 -5.3°
Reaches altitude 10° 10:07:33 10° 157° (SSE) 1,650 6.2 -5.8°
Maximum altitude 10:11:02 57° 77° (ENE) 567 3.6 -6.6°
Drops below altitude 10° 10:14:31 10° 358° (N) 1,654 6.1 -7.4°
Sets 10:16:36 0° 354° (N) 2,533 7.1 -7.9°
